Airfield :
LOGIN :

Register | Disclaimer

   EN    FR    IT 

 










Legend :    VFR   Marginal VFR   IFR   Intensive IFR   Very Intensive IFR
Visi :
Ceiling :
>= 8 km
>= 3000ft
5 to 8 km
1000 to 3000 ft
1500m to 5 km
500 to 1000 ft
800 to 1500m
200 to 500 ft
< 800m
< 200 ft
Symbols :   Thunderstorms  Fog  Heavy snow  Heavy precipitations  Wind > 20 kt
SIGMETs :     Misc.  Thunderstorms  Icing  Turbulence  Mountain Waves  Volcanic Ashes







- Airport Elevation : 46 ft
- IATA code : PAF


LPMT - Montijo Air Base

CURRENT METAR :
  • 152100Z 21008KT 9999 SCT018 BKN024 15/14 Q1025

EXPIRED METARs :
  • 152000Z 21009KT 9999 SCT018 BKN025 16/13 Q1025
  • 151900Z 22009KT 190V250 9999 BKN025 16/13 Q1025

TAF TAF LPMT
Valid from the 15 at 18:00 until the 16 at 18:00 UTC


151702Z 1518/1618 19010KT 7000 -RA FEW015 BKN022
TEMPO 1602/1607 21015G25KT 2800 RADZ BR SCT004 BKN008
BECMG 1607/1609 29010KT
No reported NOTAMs for that airfield.



MET'MAP, your aeronautical weather chart ! - Copyright ORBIFLY December 2007 - Disclaimer

ORBIFLY MET'MAP TEAM :

Programming & Development : Alexandra Zaïnal
Concept & Development : Baudouin d'Aumeries
Co-Development & Prog : Marc-Olivier Méhu
Technical & hardware support : Manuel Goepfert

Contact : metmap@orbifly.com




SOURCES & CREDITS :

   NOAA